Total_Precipitation_Accumulation
1.16 1.07 0.72 0.36 0.23 0.11 0.05 0.05 0.03 0.01 0.00 0.01 0.01 0.00 0.00 0.00 0.00 0.00 0.00 0.00 0.00 0.00 0.00 0.00 0.01 0.02 0.02 0.01 0.01 0.01 0.01 0.02 0.05 0.09 0.11 0.12 0.14 0.17 0.19 0.20 0.22 0.21 0.18 0.15
1.14 0.80 0.38 0.27 0.28 0.23 0.14 0.10 0.06 0.03 0.01 0.01 0.01 0.00 0.00 0.00 0.00 0.00 0.00 0.00 0.00 0.00 0.00 0.00 0.00 0.01 0.01 0.02 0.02 0.01 0.01 0.01 0.03 0.04 0.07 0.12 0.20 0.26 0.31 0.30 0.28 0.26 0.24 0.22
0.81 0.47 0.34 0.39 0.41 0.36 0.23 0.12 0.07 0.05 0.04 0.03 0.02 0.01 0.00 0.00 0.00 0.00 0.00 0.00 0.00 0.00 0.00 0.00 0.00 0.00 0.01 0.01 0.02 0.02 0.01 0.01 0.02 0.05 0.10 0.15 0.20 0.22 0.22 0.19 0.19 0.23 0.29 0.30
0.75 0.43 0.44 0.52 0.45 0.36 0.28 0.13 0.11 0.10 0.11 0.08 0.05 0.03 0.00 0.00 0.00 0.00 0.00 0.00 0.00 0.00 0.00 0.00 0.00 0.00 0.00 0.00 0.01 0.01 0.01 0.00 0.01 0.02 0.05 0.07 0.10 0.11 0.12 0.16 0.20 0.25 0.28 0.31
0.77 0.49 0.50 0.59 0.41 0.31 0.26 0.15 0.17 0.19 0.19 0.18 0.09 0.06 0.01 0.00 0.00 0.00 0.00 0.00 0.00 0.00 0.00 0.00 0.00 0.00 0.00 0.00 0.00 0.01 0.00 0.00 0.01 0.01 0.02 0.05 0.08 0.10 0.12 0.14 0.17 0.20 0.21 0.24
0.59 0.52 0.56 0.52 0.38 0.34 0.31 0.34 0.35 0.35 0.40 0.36 0.12 0.08 0.03 0.00 0.00 0.00 0.00 0.00 0.00 0.00 0.00 0.00 0.00 0.00 0.00 0.00 0.00 0.00 0.00 0.00 0.01 0.00 0.01 0.02 0.05 0.07 0.09 0.09 0.12 0.15 0.17 0.17
0.78 0.62 0.54 0.54 0.63 0.58 0.60 0.80 0.94 0.80 0.67 0.32 0.07 0.07 0.03 0.00 0.00 0.00 0.00 0.00 0.00 0.00 0.00 0.00 0.00 0.00 0.00 0.00 0.00 0.00 0.00 0.00 0.00 0.00 0.01 0.01 0.04 0.07 0.09 0.10 0.11 0.13 0.13 0.13
0.81 0.72 0.48 0.56 0.76 0.75 0.66 0.77 0.81 0.55 0.31 0.12 0.05 0.04 0.01 0.00 0.00 0.00 0.00 0.00 0.00 0.00 0.00 0.00 0.00 0.00 0.00 0.00 0.00 0.00 0.00 0.00 0.00 0.01 0.01 0.01 0.03 0.05 0.06 0.08 0.09 0.10 0.12 0.15
0.55 0.51 0.32 0.39 0.53 0.59 0.63 0.62 0.49 0.54 0.35 0.18 0.08 0.03 0.01 0.00 0.00 0.00 0.00 0.00 0.00 0.00 0.00 0.00 0.00 0.00 0.00 0.00 0.00 0.00 0.00 0.01 0.01 0.01 0.01 0.01 0.02 0.03 0.05 0.06 0.07 0.08 0.10 0.12
0.48 0.58 0.38 0.42 0.62 0.69 0.62 0.50 0.56 0.85 0.59 0.29 0.10 0.03 0.01 0.00 0.00 0.00 0.00 0.00 0.00 0.00 0.00 0.00 0.00 0.00 0.00 0.00 0.00 0.00 0.00 0.01 0.01 0.02 0.02 0.02 0.02 0.03 0.05 0.05 0.05 0.06 0.07 0.09
0.45 0.70 0.53 0.56 0.71 0.65 0.61 0.66 0.66 0.65 0.46 0.36 0.18 0.04 0.01 0.01 0.01 0.00 0.00 0.00 0.00 0.00 0.00 0.00 0.00 0.00 0.00 0.00 0.00 0.00 0.01 0.01 0.01 0.01 0.01 0.02 0.02 0.03 0.03 0.04 0.05 0.06 0.06 0.06
0.40 0.73 0.62 0.47 0.41 0.43 0.50 0.49 0.55 0.70 0.50 0.38 0.27 0.08 0.01 0.01 0.01 0.01 0.01 0.01 0.01 0.00 0.00 0.00 0.00 0.00 0.00 0.01 0.01 0.01 0.02 0.02 0.02 0.01 0.01 0.02 0.02 0.02 0.03 0.04 0.05 0.05 0.05 0.05
0.38 0.73 0.77 0.56 0.50 0.54 0.58 0.46 0.45 0.64 0.81 0.62 0.41 0.12 0.02 0.02 0.02 0.02 0.03 0.03 0.03 0.02 0.01 0.01 0.01 0.01 0.01 0.02 0.02 0.02 0.02 0.02 0.02 0.02 0.03 0.03 0.03 0.03 0.04 0.06 0.06 0.05 0.05 0.05
0.56 0.76 0.69 0.51 0.45 0.54 0.52 0.41 0.50 0.95 1.09 0.58 0.27 0.10 0.05 0.04 0.06 0.07 0.07 0.06 0.05 0.04 0.04 0.03 0.02 0.02 0.02 0.02 0.02 0.02 0.02 0.02 0.03 0.03 0.04 0.04 0.05 0.06 0.06 0.06 0.06 0.06 0.05 0.06
0.57 0.80 0.60 0.37 0.29 0.44 0.46 0.44 0.53 0.76 0.71 0.61 0.29 0.14 0.10 0.09 0.12 0.12 0.10 0.08 0.07 0.06 0.05 0.05 0.04 0.04 0.04 0.03 0.03 0.02 0.02 0.02 0.03 0.04 0.05 0.06 0.07 0.06 0.07 0.06 0.06 0.06 0.06 0.06
0.44 0.66 0.64 0.44 0.27 0.37 0.42 0.39 0.41 0.45 0.47 0.44 0.31 0.24 0.13 0.12 0.14 0.13 0.10 0.09 0.08 0.06 0.06 0.05 0.04 0.04 0.04 0.04 0.05 0.05 0.04 0.04 0.04 0.06 0.07 0.07 0.07 0.07 0.07 0.07 0.08 0.09 0.10 0.10
0.31 0.52 0.70 0.49 0.30 0.38 0.43 0.37 0.39 0.37 0.33 0.34 0.36 0.27 0.17 0.17 0.17 0.15 0.11 0.09 0.08 0.05 0.04 0.03 0.03 0.04 0.03 0.03 0.03 0.03 0.04 0.05 0.05 0.06 0.08 0.08 0.08 0.08 0.08 0.10 0.15 0.18 0.20 0.22
0.18 0.41 0.64 0.44 0.33 0.45 0.34 0.27 0.28 0.30 0.27 0.29 0.27 0.20 0.15 0.15 0.17 0.16 0.12 0.08 0.06 0.04 0.03 0.02 0.02 0.02 0.02 0.02 0.02 0.02 0.03 0.04 0.05 0.07 0.10 0.12 0.13 0.17 0.20 0.20 0.25 0.31 0.35 0.37
0.08 0.29 0.50 0.39 0.30 0.23 0.18 0.18 0.21 0.27 0.27 0.24 0.17 0.12 0.10 0.11 0.16 0.16 0.13 0.09 0.06 0.04 0.04 0.04 0.03 0.03 0.02 0.03 0.03 0.04 0.05 0.06 0.06 0.08 0.11 0.14 0.17 0.24 0.30 0.31 0.34 0.38 0.43 0.46
0.07 0.19 0.40 0.34 0.28 0.15 0.09 0.06 0.08 0.17 0.25 0.16 0.14 0.13 0.13 0.14 0.17 0.15 0.12 0.10 0.10 0.08 0.06 0.06 0.07 0.08 0.09 0.09 0.10 0.11 0.11 0.15 0.17 0.18 0.22 0.26 0.31 0.37 0.40 0.39 0.39 0.38 0.36 0.35
0.12 0.21 0.29 0.26 0.21 0.04 0.02 0.03 0.04 0.14 0.17 0.07 0.06 0.08 0.11 0.10 0.09 0.11 0.09 0.08 0.10 0.11 0.11 0.11 0.11 0.13 0.15 0.15 0.16 0.17 0.18 0.24 0.30 0.33 0.35 0.35 0.37 0.38 0.38 0.35 0.32 0.28 0.23 0.19
0.04 0.07 0.08 0.10 0.12 0.04 0.02 0.02 0.04 0.06 0.05 0.05 0.05 0.07 0.08 0.09 0.08 0.08 0.09 0.09 0.08 0.08 0.09 0.11 0.13 0.15 0.17 0.20 0.24 0.25 0.28 0.31 0.32 0.32 0.32 0.31 0.30 0.27 0.26 0.24 0.19 0.15 0.11 0.08
0.03 0.02 0.02 0.02 0.02 0.01 0.01 0.02 0.01 0.01 0.03 0.04 0.05 0.06 0.07 0.06 0.07 0.06 0.05 0.06 0.06 0.06 0.08 0.11 0.14 0.17 0.19 0.21 0.24 0.26 0.26 0.25 0.25 0.24 0.23 0.20 0.16 0.14 0.12 0.10 0.08 0.06 0.05 0.03
0.07 0.04 0.04 0.03 0.01 0.00 0.01 0.01 0.01 0.01 0.01 0.01 0.02 0.03 0.07 0.08 0.08 0.07 0.04 0.04 0.04 0.04 0.05 0.06 0.08 0.10 0.11 0.12 0.15 0.16 0.14 0.13 0.13 0.12 0.12 0.09 0.06 0.04 0.03 0.02 0.02 0.01 0.01 0.00
0.09 0.08 0.05 0.03 0.01 0.01 0.01 0.01 0.01 0.01 0.01 0.00 0.00 0.01 0.02 0.04 0.04 0.05 0.05 0.04 0.04 0.04 0.03 0.03 0.03 0.04 0.05 0.05 0.06 0.06 0.05 0.04 0.04 0.03 0.03 0.02 0.02 0.01 0.01 0.01 0.00 0.00 0.00 0.00
0.01 0.03 0.04 0.04 0.03 0.02 0.02 0.02 0.01 0.01 0.00 0.00 0.00 0.01 0.01 0.01 0.02 0.02 0.02 0.02 0.02 0.03 0.02 0.02 0.02 0.02 0.02 0.02 0.02 0.02 0.01 0.01 0.01 0.00 0.00 0.00 0.00 0.00 0.00 0.00 0.00 0.00 0.00 0.00